CORVUS BC5 (46931 NORAD) Tracking and Keplerian Element Data

This shows tracking and keplerian element data for the satellite.

Feedback or suggestion? Click here.




ElementValue
Catalog46931
NameCORVUS BC5
Epoch Orbit934
Epoch Day20.53988144
Epoch Year2021
RAAN159.9389
Inclination97.3721
Eccentricity0.0017307
Argument of Perigee69.7605
Mean Anonmoly290.5464
Mean Motion15.21907767
Decay Rate1.083E-05
L11 46931U 20085C 21020.53988144 .00001083 00000-0 50449-4 0 9993
L22 46931 97.3721 159.9389 0017307 69.7605 290.5464 15.21907767 9340

Live tracking and technical data element details for CORVUS BC5 (NORAD 46931). CORVUS BC5 can be tracked NOW for your location showing map with azimuth and elevation plus other details from your city location.

Track the satellite on the map from your city or location and see movement details for azimuth, elevation, latitude, longitude, range, height, and movement on the map or in text.







IsCatalogInMostPopularTable: catalog: 46931, numindb: 31
Update: records affected: 1



GetName: 46931 CORVUS BC5

Hit Count: updated at: Fri, 22 Jan 2021 19:05:45 GMT